Location: Alma
(38.7220°N, 88.9090°W)
Time: 04:14:49
(UTC-06:00)

Vanguard 2 Rocket - Pass Details

Date: 19 November 2019
Orbit: 554 x 3326 km, 32.9° (Epoch: 15 December)

Event Time Altitude Azimuth Distance (km) Brightness Sun altitude
Rises 00:44:44 0° 233° (SW) 2,709 - -66.3°
Reaches altitude 10° 00:47:01 10° 220° (SW) 1,848 - -66.0°
Maximum altitude 00:50:29 28° 160° (SSE) 1,184 - -65.5°
Drops below altitude 10° 00:54:52 10° 101° (E) 2,358 - -64.9°
Sets 00:58:12 0° 91° (E) 3,643 - -64.5°
